Location: Newark
(44.6028°N, 124.0883°W)
Time: 02:01:48
(UTC+00:00)

Vanguard 1 - Pass Details

Date: 27 October 2019
Orbit: 652 x 3831 km, 34.2° (Epoch: 16 November)

Event Time Altitude Azimuth Distance (km) Brightness Sun altitude
Rises 05:14:13 0° 266° (W) 4,248 13.9 -42.4°
Reaches altitude 10° 05:16:44 10° 259° (WSW) 3,580 13.3 -42.8°
Enters shadow 05:22:54 38° 220° (SW) 2,692 12.1 -43.7°
Maximum altitude 05:25:38 42° 192° (SSW) 2,791 - -44.2°
Drops below altitude 10° 05:41:03 10° 130° (SE) 6,078 - -46.4°
Sets 05:47:00 0° 125° (SE) 7,488 - -47.3°
